Location: Charlotte
(35.2270°N, 80.8430°W)
Time: 08:05:57
(UTC-05:00)

ISS - Visible Passes

Search period start: 02 December 2020 00:00
Search period end: 12 December 2020 00:00
Orbit: 418 x 420 km, 51.6° (Epoch: 02 December)

Date Brightness Start Highest point End Pass type
(mag) Time Alt. Az. Time Alt. Az. Time Alt. Az.
04 Dec -1.4 18:33:29 10° N 18:34:18 13° N 18:34:18 13° N visible
05 Dec -1.5 17:46:53 10° N 17:47:40 11° NNE 17:48:27 10° NE visible
05 Dec -0.8 19:21:43 10° NW 19:22:02 12° NW 19:22:02 12° NW visible
06 Dec -2.9 18:34:17 10° NNW 18:36:59 32° NNE 18:36:59 32° NNE visible
07 Dec -2.3 17:46:59 10° NNW 17:49:40 21° NNE 17:52:13 11° E visible
07 Dec -1.5 19:23:25 10° WNW 19:25:14 25° W 19:25:14 25° W visible
08 Dec -3.6 18:35:38 10° NW 18:38:59 71° SW 18:40:53 23° SE visible
09 Dec -3.7 17:48:02 10° NW 17:51:23 60° NE 17:54:41 10° ESE visible
09 Dec -0.4 19:27:01 10° WSW 19:27:45 11° SW 19:28:28 10° SW visible
10 Dec -0.9 18:37:48 10° W 18:40:18 19° SW 18:42:47 10° S visible
11 Dec -2.0 17:49:39 10° WNW 17:52:46 36° SW 17:55:52 10° SSE visible
